Fremont, MI

3:29 PM EDT on October 18, 2019 (GMT -0400)
Fremont

Weather History for KFFX - August, 2019

Change the Weather History Date:

Monday, August 12, 2019

  Actual Average (KMKG) Record (KMKG)
Temperature  
Mean Temperature 74 °F -  
Max Temperature 84 °F 78 °F 91 °F (1988)
Min Temperature 65 °F 57 °F 45 °F (1979)
Cooling Degree Days 10    
Growing Degree Days 24 (Base 50)    
Moisture  
Dew Point 64 °F    
Average Humidity 74    
Maximum Humidity 100    
Minimum Humidity 48    
Precipitation  
Precipitation 0.00 in - - ()
Sea Level Pressure  
Sea Level Pressure 29.89 in    
Wind  
Wind Speed 1 mph (NNW)    
Max Wind Speed 12 mph    
Max Gust Speed -    
Visibility 10 miles    
Events      
Averages and records for this station are not official NWS values.
T = Trace of Precipitation, MM = Missing Value Source: NWS Daily Summary

Daily Weather History Graph

Daily Weather History Graph

Search for Another Location

Airport or City:

Astronomy

Aug. 12, 2019 Rise Set
Actual Time 6:45 AM EDT 8:51 PM EDT
Civil Twilight 6:14 AM EDT 9:23 PM EDT
Nautical Twilight 5:35 AM EDT 10:01 PM EDT
Astronomical Twilight 4:53 AM EDT 10:43 PM EDT
Moon 7:25 PM EDT (8/12) 3:49 AM EDT (8/12)
Length of Visible Light 15h 08m
Length of Day
14h 06m
Waxing Gibbous, 93% of the Moon is Illuminated
Aug 12
Waxing Gibbous
Aug 15
Full
Aug 23
Last Quarter
Aug 30
New
Sep 5
First Quarter

Hourly Weather History & Observations

Time (EDT) Temp. Heat Index Dew Point Humidity Pressure Visibility Wind Dir Wind Speed Gust Speed Precip Events Conditions
12:19 AM 70.3 °F - 62.4 °F 76% 29.95 in 10.0 mi Calm Calm - N/A   Overcast
12:37 AM 70.9 °F - 61.3 °F 72% 29.95 in 10.0 mi Calm Calm - N/A   Overcast
12:55 AM 70.7 °F - 60.8 °F 71% 29.95 in 10.0 mi Calm Calm - N/A   Overcast
1:15 AM 70.7 °F - 61.0 °F 71% 29.95 in 10.0 mi Calm Calm - N/A   Overcast
1:35 AM 70.2 °F - 61.3 °F 74% 29.95 in 10.0 mi Calm Calm - N/A   Overcast
1:58 AM 69.8 °F - 62.8 °F 78% 29.94 in 10.0 mi Calm Calm - N/A   Overcast
2:16 AM 69.3 °F - 62.8 °F 80% 29.94 in 10.0 mi Calm Calm - N/A   Overcast
2:35 AM 68.0 °F - 61.9 °F 81% 29.94 in 10.0 mi Calm Calm - N/A   Mostly Cloudy
2:55 AM 67.5 °F - 64.8 °F 91% 29.93 in 10.0 mi Calm Calm - N/A   Mostly Cloudy
3:19 AM 67.5 °F - 65.3 °F 93% 29.93 in 10.0 mi Calm Calm - N/A   Overcast
3:37 AM 67.3 °F - 65.3 °F 93% 29.93 in 10.0 mi Calm Calm - N/A   Overcast
3:55 AM 67.1 °F - 64.8 °F 92% 29.93 in 10.0 mi Calm Calm - N/A   Mostly Cloudy
3:56 AM 67.1 °F - 64.6 °F 92% 29.92 in 10.0 mi Calm Calm - N/A   Mostly Cloudy
4:15 AM 66.0 °F - 64.4 °F 94% 29.92 in 10.0 mi Calm Calm - N/A   Mostly Cloudy
4:16 AM 65.8 °F - 64.6 °F 96% 29.92 in 10.0 mi Calm Calm - N/A   Mostly Cloudy
4:35 AM 66.2 °F - 65.5 °F 98% 29.92 in 10.0 mi Calm Calm - N/A   Overcast
4:58 AM 67.1 °F - 66.2 °F 97% 29.91 in 10.0 mi Calm Calm - N/A   Overcast
5:16 AM 66.7 °F - 65.7 °F 96% 29.91 in 10.0 mi NW 4.6 mph - N/A   Mostly Cloudy
5:35 AM 65.1 °F - 64.9 °F 99% 29.92 in 10.0 mi Calm Calm - N/A   Scattered Clouds
5:36 AM 65.1 °F - 64.9 °F 99% 29.92 in 10.0 mi Calm Calm - N/A   Scattered Clouds
5:55 AM 65.8 °F - 65.3 °F 98% 29.91 in 10.0 mi Calm Calm - N/A   Mostly Cloudy
5:56 AM 66.0 °F - 65.3 °F 98% 29.91 in 10.0 mi Calm Calm - N/A   Mostly Cloudy
6:19 AM 66.0 °F - 65.3 °F 98% 29.90 in 10.0 mi Calm Calm - N/A   Overcast
6:37 AM 66.2 °F - 66.0 °F 99% 29.91 in 10.0 mi Calm Calm - N/A   Overcast
6:55 AM 66.7 °F - 65.8 °F 97% 29.91 in 10.0 mi ESE 3.5 mph - N/A   Overcast
7:15 AM 67.1 °F - 66.0 °F 96% 29.92 in 10.0 mi Calm Calm - N/A   Overcast
7:16 AM 67.1 °F - 66.0 °F 96% 29.92 in 10.0 mi Calm Calm - N/A   Overcast
7:35 AM 66.4 °F - 66.0 °F 99% 29.92 in 10.0 mi NNW 3.5 mph - N/A   Mostly Cloudy
7:40 AM 66.2 °F - 65.7 °F 98% 29.92 in 10.0 mi Calm Calm - N/A   Scattered Clouds
7:57 AM 67.3 °F - 66.0 °F 96% 29.92 in 10.0 mi Calm Calm - N/A   Mostly Cloudy
8:16 AM 68.0 °F - 65.7 °F 92% 29.93 in 10.0 mi Calm Calm - N/A   Overcast
8:35 AM 69.3 °F - 63.7 °F 82% 29.93 in 10.0 mi Calm Calm - N/A   Mostly Cloudy
8:36 AM 69.3 °F - 63.0 °F 80% 29.93 in 10.0 mi Calm Calm - N/A   Mostly Cloudy
8:55 AM 70.5 °F - 63.0 °F 77% 29.93 in 10.0 mi Calm Calm - N/A   Mostly Cloudy
9:19 AM 72.0 °F - 60.3 °F 67% 29.93 in 10.0 mi Calm Calm - N/A   Mostly Cloudy
9:37 AM 73.0 °F - 59.7 °F 63% 29.92 in 10.0 mi Calm Calm - N/A   Scattered Clouds
9:55 AM 73.9 °F - 59.7 °F 61% 29.91 in 7.0 mi East 4.6 mph - N/A   Scattered Clouds
9:56 AM 73.9 °F - 59.9 °F 61% 29.91 in 7.0 mi ENE 4.6 mph - N/A   Scattered Clouds
10:15 AM 75.0 °F - 59.5 °F 58% 29.92 in 10.0 mi NNE 3.5 mph - N/A   Mostly Cloudy
10:16 AM 75.0 °F - 59.5 °F 58% 29.92 in 10.0 mi ENE 3.5 mph - N/A   Mostly Cloudy
10:35 AM 75.7 °F - 59.4 °F 57% 29.92 in 10.0 mi Calm Calm - N/A   Overcast
10:58 AM 76.3 °F - 59.2 °F 55% 29.92 in 10.0 mi East 3.5 mph - N/A   Overcast
11:16 AM 77.2 °F - 59.4 °F 54% 29.92 in 10.0 mi East 3.5 mph - N/A   Mostly Cloudy
11:35 AM 77.0 °F - 59.0 °F 54% 29.92 in 10.0 mi Calm Calm - N/A   Mostly Cloudy
11:55 AM 78.1 °F - 58.3 °F 50% 29.92 in 10.0 mi Calm Calm - N/A   Clear
12:19 PM 78.6 °F - 60.3 °F 53% 29.91 in 10.0 mi Calm Calm - N/A   Clear
12:37 PM 80.8 °F 81.6 °F 61.3 °F 51% 29.90 in 10.0 mi NW 4.6 mph - N/A   Clear
12:55 PM 80.1 °F 81.1 °F 61.0 °F 52% 29.91 in 10.0 mi Calm Calm - N/A   Clear
12:56 PM 80.1 °F 81.1 °F 61.2 °F 52% 29.91 in 10.0 mi WNW 3.5 mph - N/A   Clear
1:15 PM 80.8 °F 81.8 °F 61.7 °F 52% 29.90 in 10.0 mi Calm Calm - N/A   Clear
1:16 PM 80.6 °F 81.6 °F 61.7 °F 52% 29.90 in 10.0 mi Calm Calm - N/A   Clear
1:35 PM 81.7 °F 82.7 °F 62.6 °F 52% 29.90 in 10.0 mi NW 3.5 mph - N/A   Scattered Clouds
1:40 PM 82.2 °F 83.0 °F 62.1 °F 50% 29.89 in 10.0 mi Calm Calm - N/A   Scattered Clouds
1:58 PM 81.5 °F 82.7 °F 62.6 °F 53% 29.88 in 10.0 mi WSW 3.5 mph - N/A   Scattered Clouds
2:16 PM 81.1 °F 82.1 °F 62.2 °F 52% 29.87 in 10.0 mi NE 3.5 mph - N/A   Scattered Clouds
2:35 PM 80.4 °F 81.8 °F 63.5 °F 56% 29.86 in 10.0 mi West 4.6 mph - N/A   Overcast
2:55 PM 82.4 °F 83.2 °F 61.9 °F 50% 29.85 in 10.0 mi Calm Calm - N/A   Mostly Cloudy
2:56 PM 82.6 °F 83.2 °F 61.7 °F 49% 29.85 in 10.0 mi Calm Calm - N/A   Mostly Cloudy
3:18 PM 84.0 °F 85.2 °F 63.3 °F 50% 29.84 in 10.0 mi North 5.8 mph - N/A   Mostly Cloudy
3:37 PM 81.1 °F 82.0 °F 61.2 °F 51% 29.84 in 10.0 mi North 4.6 mph - N/A   Mostly Cloudy
3:55 PM 82.8 °F 83.4 °F 61.7 °F 49% 29.83 in 10.0 mi Calm Calm - N/A   Scattered Clouds
4:15 PM 83.5 °F 84.1 °F 61.7 °F 48% 29.83 in 10.0 mi NW 5.8 mph - N/A   Clear
4:16 PM 83.7 °F 84.3 °F 61.9 °F 48% 29.83 in 10.0 mi NNW 5.8 mph - N/A   Clear
4:35 PM 82.8 °F 83.6 °F 62.2 °F 50% 29.83 in 10.0 mi NNW 6.9 mph - N/A   Mostly Cloudy
4:40 PM 82.2 °F 83.0 °F 62.1 °F 50% 29.83 in 10.0 mi NNW 5.8 mph - N/A   Mostly Cloudy
4:58 PM 82.4 °F 83.5 °F 63.0 °F 52% 29.83 in 10.0 mi NNW 5.8 mph - N/A   Mostly Cloudy
5:16 PM 81.7 °F 83.0 °F 63.7 °F 54% 29.83 in 10.0 mi NW 5.8 mph - N/A   Scattered Clouds
5:35 PM 80.6 °F 82.2 °F 63.9 °F 57% 29.83 in 10.0 mi NW 6.9 mph - N/A   Clear
5:55 PM 79.3 °F - 66.6 °F 65% 29.83 in 10.0 mi NW 8.1 mph - N/A   Scattered Clouds
6:19 PM 78.6 °F - 66.9 °F 67% 29.83 in 10.0 mi West 8.1 mph - N/A   Mostly Cloudy
6:37 PM 77.4 °F - 66.7 °F 70% 29.84 in 10.0 mi WNW 11.5 mph - N/A   Mostly Cloudy
6:55 PM 76.6 °F - 66.0 °F 70% 29.84 in 10.0 mi WNW 8.1 mph - N/A   Mostly Cloudy
6:56 PM 76.5 °F - 66.0 °F 70% 29.84 in 10.0 mi NW 6.9 mph - N/A   Mostly Cloudy
7:15 PM 76.1 °F - 66.2 °F 71% 29.84 in 10.0 mi WNW 5.8 mph - N/A   Scattered Clouds
7:16 PM 76.1 °F - 66.2 °F 71% 29.84 in 10.0 mi WNW 5.8 mph - N/A   Scattered Clouds
7:35 PM 75.6 °F - 66.4 °F 73% 29.83 in 10.0 mi NW 8.1 mph - N/A   Clear
7:39 PM 75.9 °F - 66.7 °F 73% 29.83 in 10.0 mi NW 6.9 mph - N/A   Clear
7:58 PM 75.7 °F - 67.1 °F 74% 29.84 in 10.0 mi NW 8.1 mph - N/A   Scattered Clouds
8:16 PM 75.7 °F - 65.7 °F 71% 29.84 in 10.0 mi North 6.9 mph - N/A   Scattered Clouds
8:35 PM 74.7 °F - 65.3 °F 73% 29.84 in 10.0 mi NNW 5.8 mph - N/A   Mostly Cloudy
8:55 PM 73.4 °F - 65.3 °F 76% 29.84 in 10.0 mi North 3.5 mph - N/A   Scattered Clouds
9:37 PM 70.7 °F - 67.5 °F 89% 29.83 in 10.0 mi Calm Calm - N/A   Clear
9:55 PM 70.9 °F - 68.0 °F 91% 29.84 in 10.0 mi Calm Calm - N/A   Clear
9:56 PM 70.9 °F - 68.0 °F 91% 29.84 in 10.0 mi Calm Calm - N/A   Clear
10:15 PM 70.7 °F - 68.2 °F 92% 29.84 in 10.0 mi Calm Calm - N/A   Clear
10:16 PM 70.7 °F - 68.2 °F 92% 29.84 in 10.0 mi Calm Calm - N/A   Clear
10:35 PM 68.9 °F - 68.2 °F 98% 29.84 in 10.0 mi Calm Calm - N/A   Clear
10:58 PM 68.9 °F - 68.4 °F 98% 29.83 in 10.0 mi Calm Calm - N/A   Scattered Clouds
11:16 PM 68.5 °F - 68.2 °F 99% 29.83 in 10.0 mi Calm Calm - N/A   Clear
11:35 PM 67.6 °F - 67.6 °F 100% 29.82 in 10.0 mi Calm Calm - N/A   Clear
11:55 PM 69.4 °F - 68.7 °F 98% 29.82 in 10.0 mi Calm Calm - N/A   Scattered Clouds